Weather History for PAKF - October, 2011

Change the Weather History Date:

Sunday, October 2, 2011

  Actual Average (PACD) Record (PACD)
Temperature  
Mean Temperature 42 °F 44 °F  
Max Temperature 48 °F 49 °F 57 °F (1954)
Min Temperature 37 °F 39 °F 29 °F (2002)
Degree Days  
Heating Degree Days 22 21  
Month to date heating degree days 42  
Since 1 July heating degree days 1393  
Cooling Degree Days 0    
Month to date cooling degree days  
Year to date cooling degree days  
Moisture  
Dew Point 40 °F    
Average Humidity 90    
Maximum Humidity 100    
Minimum Humidity 73    
Precipitation  
Precipitation 0.32 in 0.16 in 1.57 in (1952)
Month to date precipitation 0.32  
Year to date precipitation 27.79  
Snow  
Snow 0.00 in 0.00 in 0.70 in (2010)
Month to date snowfall 0.0  
Since 1 July snowfall 0.0  
Since 1 September snowfall 0.0  
Snow Depth -    
Sea Level Pressure  
Sea Level Pressure 29.39 in    
Wind  
Wind Speed 6 mph (South)    
Max Wind Speed 17 mph    
Max Gust Speed 34 mph    
Visibility 10 miles    
Events Rain    
T = Trace of Precipitation, MM = Missing Value Source: NWS Daily Summary

Daily Weather History Graph

Daily Weather History Graph

Search for Another Location

Airport or City:

Trip Planner

Search our weather history database for the weather conditions in past years. The results will help you decide how hot, cold, wet, or windy it might be!

Date:

Astronomy

Oct. 02, 2011 Rise Set
Actual Time 7:57 AM HDT 7:26 PM HDT
Civil Twilight 7:21 AM HDT 8:02 PM HDT
Nautical Twilight 6:39 AM HDT 8:44 PM HDT
Astronomical Twilight 5:56 AM HDT 9:27 PM HDT
Moon 3:14 PM HDT (10/2) 10:40 PM HDT (10/2)
Length of Visible Light 12h 40m
Length of Day
11h 29m
Waxing Crescent, 36% of the Moon is Illuminated
Oct 2
Waxing Crescent
Oct 3
First Quarter
Oct 11
Full
Oct 19
Last Quarter
Oct 26
New

Hourly Weather History & Observations

Time (HDT) Temp. Windchill Dew Point Humidity Pressure Visibility Wind Dir Wind Speed Gust Speed Precip Events Conditions
12:01 AM 37.9 °F 35.5 °F 35.1 °F 89% 29.51 in 10.0 mi West 3.5 mph - N/A   Overcast
12:49 AM 39.2 °F 37.0 °F 33.8 °F 81% 29.49 in 10.0 mi SSW 3.5 mph - N/A   Overcast
1:01 AM 39.9 °F 37.8 °F 32.0 °F 73% 29.76 in 10.0 mi South 3.5 mph - N/A   Overcast
2:01 AM 41.0 °F 36.4 °F 33.1 °F 73% 29.74 in 10.0 mi SSW 6.9 mph - N/A   Overcast
3:01 AM 41.0 °F 36.4 °F 34.0 °F 76% 29.71 in 10.0 mi SSE 6.9 mph - 0.00 in Rain Light Rain
3:15 AM 39.2 °F 34.2 °F 33.8 °F 81% 29.42 in 10.0 mi South 6.9 mph - 0.00 in Rain Light Rain
5:01 AM 39.2 °F 32.5 °F 35.6 °F 87% 29.38 in 10.0 mi SSW 10.4 mph - 0.00 in Rain Light Rain
6:01 AM 41.0 °F 35.2 °F 37.9 °F 89% 29.63 in 10.0 mi SSW 9.2 mph - 0.00 in Rain Light Rain
6:38 AM 41.0 °F 35.2 °F 37.4 °F 87% 29.34 in 10.0 mi South 9.2 mph - 0.01 in Rain Light Rain
6:54 AM 41.0 °F 36.4 °F 37.4 °F 87% 29.34 in 10.0 mi South 6.9 mph - 0.01 in Rain Light Rain
7:01 AM 41.0 °F 35.2 °F 39.0 °F 93% 29.61 in 10.0 mi SSW 9.2 mph - 0.01 in Rain Light Rain
8:01 AM 41.0 °F 38.0 °F 39.0 °F 93% 29.33 in 10.0 mi South 4.6 mph - N/A Rain Rain
8:16 AM 41.0 °F 37.1 °F 39.2 °F 93% 29.33 in 10.0 mi South 5.8 mph - 0.03 in Rain Light Rain
9:01 AM 42.1 °F 38.4 °F 39.9 °F 92% 29.32 in 10.0 mi SSW 5.8 mph - N/A Rain Light Rain
9:23 AM 42.8 °F 38.6 °F 41.0 °F 93% 29.31 in 10.0 mi SSE 6.9 mph - 0.00 in Rain Light Rain
10:01 AM 42.8 °F 38.6 °F 41.0 °F 93% 29.31 in 10.0 mi SSE 6.9 mph - 0.00 in Rain Light Rain
10:09 AM 42.8 °F 37.5 °F 42.8 °F 100% 29.31 in 10.0 mi SSE 9.2 mph - 0.01 in Rain Light Rain
11:01 AM 43.0 °F 37.2 °F 42.1 °F 97% 29.31 in 10.0 mi SE 10.4 mph - 0.01 in Rain Light Rain
12:01 PM 43.0 °F 39.5 °F 42.1 °F 97% 29.32 in 10.0 mi Variable 5.8 mph - 0.00 in Rain Light Rain
12:21 PM 42.8 °F 38.0 °F 42.8 °F 100% 29.32 in 10.0 mi South 8.1 mph - 0.00 in Rain Light Rain
1:01 PM 43.0 °F 37.7 °F 42.1 °F 97% 29.32 in 10.0 mi South 9.2 mph - 0.02 in Rain Light Rain
2:01 PM 44.1 °F 41.5 °F 43.0 °F 96% 29.31 in 10.0 mi SSW 4.6 mph - 0.03 in Rain Light Rain
2:49 PM 44.6 °F 41.4 °F 44.6 °F 100% 29.31 in 10.0 mi South 5.8 mph - 0.01 in Rain Light Rain
3:01 PM 45.0 °F 43.5 °F 43.0 °F 93% 29.31 in 10.0 mi SW 3.5 mph - 0.01 in Rain Light Rain
4:01 PM 45.0 °F - 44.1 °F 97% 29.31 in 7.0 mi Calm Calm - 0.08 in Rain Light Rain
4:57 PM 44.6 °F 42.2 °F 44.6 °F 100% 29.32 in 10.0 mi SSE 4.6 mph - 0.07 in Rain Light Rain
5:01 PM 45.0 °F 42.6 °F 44.1 °F 97% 29.32 in 10.0 mi SSW 4.6 mph - 0.07 in Rain Light Rain
6:01 PM 46.0 °F 41.9 °F 44.1 °F 93% 29.32 in 10.0 mi ESE 8.1 mph - 0.01 in Rain Light Rain
6:33 PM 46.4 °F 41.5 °F 44.6 °F 93% 29.31 in 10.0 mi SSE 10.4 mph - 0.00 in Rain Light Rain
7:01 PM 46.0 °F - 43.0 °F 89% 29.32 in 10.0 mi Calm Calm - N/A   Unknown
7:19 PM 46.4 °F 41.9 °F 42.8 °F 87% 29.32 in 10.0 mi East 9.2 mph - N/A   Overcast
8:01 PM 46.0 °F 42.5 °F 43.0 °F 89% 29.33 in 10.0 mi South 6.9 mph - N/A Rain Light Rain
10:01 PM 48.9 °F - 41.0 °F 74% 29.33 in 9.0 mi WNW 9.2 mph 29.9 mph 0.08 in Rain Light Rain
11:01 PM 48.0 °F - 41.0 °F 77% 29.34 in 10.0 mi West 17.3 mph 34.5 mph 0.00 in   Overcast